Regional Weather Roundup
Issued by NWS

Home | Current Version | Previous Version | Text Only | Print | Product List | Glossary On
Versions: 1 2 3 4 5 6 7 8 9 10 11 12 13 14 15 16 17 18 19 20 21 22 23 24 25 26 27 28 29 30 31 32 33 34 35 36 37 38 39 40 41 42 43 44 45 46 47 48 49 50
000
ASUS44 KMEG 232310
RWRTN
TENNESSEE HOURLY STATE WEATHER ROUNDUP
NATIONAL WEATHER SERVICE MEMPHIS TN
500 PM CST THU NOV 23 2017

TNZ002-004-019-021-049-052-054-088>092-240000-
WEST TENNESSEE

CITY           SKY/WX    TMP DP  RH WIND       PRES   REMARKS
MEMPHIS INTL   PTCLDY    50  23  34 CALM      30.05F
NWS MEMPHIS      N/A     50 N/A N/A MISG        N/A
JACKSON        CLEAR     46  26  45 CALM      30.04F
DYERSBURG      CLEAR     48  20  32 CALM      30.05S
SOMERVILLE     CLEAR     48  21  34 CALM      30.04S
COVINGTON      CLEAR     48  23  37 SE3       30.05S
UNION CITY     CLEAR     45  25  45 CALM      30.04R
BOLIVAR        CLEAR     46  27  46 CALM      30.04S
PARIS          CLEAR     45  25  45 CALM      30.03R
HUNTINGDON     CLEAR     45  25  45 CALM      30.03S
LEXINGTON      CLEAR     50  19  29 CALM      30.04S
SELMER         CLEAR     45  27  49 CALM      30.04S
SAVANNAH       CLEAR     46  27  46 CALM      30.04S
$$

TNZ008-025-027-028-033-062-065-066-240000-
NORTH MIDDLE TENNESSEE

CITY           SKY/WX    TMP DP  RH WIND       PRES   REMARKS
NASHVILLE      CLEAR     48  17  29 CALM      30.04S
PORTLAND       CLEAR     46  23  39 CALM      30.04R
CLARKSVILLE    CLEAR     49  18  29 CALM      30.03S
SMYRNA         CLEAR     46  24  42 CALM      30.05S
COOKEVILLE     CLEAR     36  27  69 CALM      30.02S
GALLATIN       CLEAR     48  23  37 CALM      30.07R
CROSSVILLE     CLEAR     46  29  51 NW3       30.01S
$$

TNZ061-075-076-078-094-096-097-240000-
SOUTH MIDDLE TENNESSEE

CITY           SKY/WX    TMP DP  RH WIND       PRES   REMARKS
FAYETTEVILLE   CLEAR     50  25  37 N5        30.01S
TULLAHOMA      CLEAR     45  23  42 NW6       30.02R
WINCHESTER     CLEAR     46  34  61 CALM      30.02S
MCMINNVILLE    CLEAR     45  25  45 CALM      30.02R
COLUMBIA       CLEAR     45  21  39 CALM      30.02S
SHELBYVILLE    CLEAR     48  19  32 CALM      30.03S
$$

TNZ017-018-042-046-047-240000-
NORTHEAST TENNESSEE

CITY           SKY/WX    TMP DP  RH WIND       PRES   REMARKS
TRI CITIES     PTCLDY    46  32  58 NW5       30.01S
ELIZABETHTON   PTCLDY    43  34  70 CALM      30.01S
$$

TNZ012-013-036-069-073-074-240000-
CENTRAL EAST TENNESSEE

CITY           SKY/WX    TMP DP  RH WIND       PRES   REMARKS
KNOXVILLE      CLEAR     51  34  52 CALM      30.01S
OAK RIDGE      CLEAR     48  34  58 CALM      30.03S
DOWNTOWN KNOXV CLEAR     46  36  66 CALM      30.02S
GATLINBURG     CLEAR     48  32  53 CALM      30.02R
MORRISTOWN     PTCLDY    48  30  49 CALM      30.01S
JACKSBORO      CLEAR     43  32  65 CALM      30.05S
$$

TNZ083-085-099-240000-
SOUTHEAST TENNESSEE

CITY           SKY/WX    TMP DP  RH WIND       PRES   REMARKS
CHATTANOOGA    PTCLDY    50  34  54 CALM      30.02S
DAYTON         CLEAR     48  37  66 CALM      30.01S
$$

SKY/WX REPORTED AS FAIR MEANS FEW OR NO CLOUDS BELOW
12 THOUSAND FEET.




USA.gov is the U.S. government's official web portal to all federal, state and local government web resources and services.